Weather History for Topeka Forbes, KS

Change the Weather History Date:

Friday, April 11, 2014

  Actual Average Record
Temperature  
Mean Temperature 58 °F -  
Max Temperature 78 °F 66 °F 85 °F (1971)
Min Temperature 39 °F 42 °F 25 °F (2004)
Degree Days  
Heating Degree Days 6    
Growing Degree Days 8 (Base 50)    
Moisture  
Dew Point 34 °F    
Average Humidity 44    
Maximum Humidity 77    
Minimum Humidity 20    
Precipitation  
Precipitation 0.00 in - - ()
Sea Level Pressure  
Sea Level Pressure 29.98 in    
Wind  
Wind Speed 5 mph (ESE)    
Max Wind Speed 15 mph    
Max Gust Speed 21 mph    
Visibility 9 miles    
Events      
Averages and records for this station are not official NWS values.
T = Trace of Precipitation, MM = Missing Value Source: NWS Daily Summary

Daily Weather History Graph

Daily Weather History Graph

Search for Another Location

Airport:

Trip Planner

Search our weather history database for the weather conditions in past years. The results will help you decide how hot, cold, wet, or windy it might be!

Date:

Astronomy

Apr. 11, 2014 Rise Set
Actual Time 6:51 AM CDT 7:55 PM CDT
Civil Twilight 6:24 AM CDT 8:23 PM CDT
Nautical Twilight 5:52 AM CDT 8:56 PM CDT
Astronomical Twilight 5:18 AM CDT 9:30 PM CDT
Moon 4:39 PM CDT (4/11) 4:45 AM CDT (4/11)
Length of Visible Light 13h 58m
Length of Day
13h 04m
Waxing Gibbous, 87% of the Moon is Illuminated
Apr 11
Waxing Gibbous
Apr 15
Full
Apr 22
Last Quarter
Apr 29
New
May 6
First Quarter

Hourly Weather History & Observations

Time (CDT) Temp. Windchill Dew Point Humidity Pressure Visibility Wind Dir Wind Speed Gust Speed Precip Events Conditions
12:53 AM 46.9 °F - 33.1 °F 59% 30.01 in 10.0 mi Calm Calm - N/A   Clear
1:53 AM 46.0 °F - 33.1 °F 61% 30.02 in 10.0 mi Calm Calm - N/A   Clear
2:53 AM 45.0 °F - 34.0 °F 65% 30.02 in 10.0 mi Calm Calm - N/A   Clear
3:53 AM 39.9 °F 36.7 °F 33.1 °F 77% 30.03 in 10.0 mi North 4.6 mph - N/A   Clear
4:53 AM 41.0 °F - 32.0 °F 70% 30.04 in 10.0 mi Calm Calm - N/A   Clear
5:53 AM 41.0 °F 39.0 °F 34.0 °F 76% 30.04 in 10.0 mi NW 3.5 mph - N/A   Partly Cloudy
6:53 AM 39.9 °F 36.7 °F 33.1 °F 77% 30.03 in 10.0 mi East 4.6 mph - N/A   Clear
7:53 AM 43.0 °F - 34.0 °F 71% 30.04 in 9.0 mi Calm Calm - N/A   Clear
8:53 AM 50.0 °F - 34.0 °F 54% 30.06 in 10.0 mi East 3.5 mph - N/A   Clear
9:53 AM 60.1 °F - 30.0 °F 32% 30.06 in 10.0 mi SE 8.1 mph - N/A   Clear
10:53 AM 66.0 °F - 26.1 °F 22% 30.06 in 10.0 mi SE 13.8 mph - N/A   Clear
11:53 AM 69.1 °F - 28.9 °F 22% 30.05 in 10.0 mi SE 15.0 mph 20.7 mph N/A   Clear
12:53 PM 72.0 °F - 28.0 °F 20% 30.03 in 10.0 mi ESE 12.7 mph - N/A   Clear
1:53 PM 73.0 °F - 30.0 °F 20% 30.00 in 8.0 mi ESE 8.1 mph - N/A   Clear
2:53 PM 75.9 °F - 33.1 °F 21% 29.97 in 10.0 mi ESE 11.5 mph 18.4 mph N/A   Clear
3:53 PM 75.9 °F - 34.0 °F 22% 29.95 in 10.0 mi East 8.1 mph - N/A   Partly Cloudy
4:53 PM 78.1 °F - 36.0 °F 22% 29.92 in 10.0 mi SSE 11.5 mph - N/A   Clear
5:53 PM 77.0 °F - 36.0 °F 23% 29.89 in 10.0 mi ESE 11.5 mph - N/A   Clear
6:53 PM 75.0 °F - 37.0 °F 25% 29.89 in 10.0 mi SE 11.5 mph - N/A   Clear
7:53 PM 68.0 °F - 37.9 °F 33% 29.89 in 6.0 mi ESE 5.8 mph - N/A   Haze
8:53 PM 66.0 °F - 39.0 °F 37% 29.89 in 10.0 mi ESE 6.9 mph - N/A   Clear
9:53 PM 62.1 °F - 39.9 °F 44% 29.90 in 5.0 mi ESE 8.1 mph - N/A   Haze
10:53 PM 61.0 °F - 39.9 °F 46% 29.88 in 4.0 mi SE 6.9 mph - N/A   Haze
11:53 PM 59.0 °F - 42.1 °F 53% 29.86 in 8.0 mi SE 8.1 mph - N/A   Clear